This is the latest recevied weather packets stored in our database for station/object AI5BL. If no packets are shown the sender has not sent any weather packets the latest 1 day(s).
| Time | Temp. | Humidity | Pressure | Rain* | Wind** | Luminosity | Snow |
|---|---|---|---|---|---|---|---|
| 1777988030 | 18.33° C | 84% | 1016.1 hPa | 0 mm | 0.45 m/s, 105° | 181 W/m² | - |
| 1777987725 | 17.78° C | 85% | 1016.1 hPa | 0 mm | 0 m/s | 158 W/m² | - |
| 1777987422 | 17.78° C | 85% | 1016.4 hPa | 0 mm | 0 m/s | 173 W/m² | - |
| 1777987119 | 17.22° C | 85% | 1016.2 hPa | 0 mm | 0 m/s | 169 W/m² | - |
| 1777986817 | 17.22° C | 85% | 1016.1 hPa | 0 mm | 0 m/s | 157 W/m² | - |
| 1777986514 | 17.22° C | 85% | 1016.2 hPa | 0 mm | 0 m/s | 156 W/m² | - |
| 1777986212 | 16.67° C | 87% | 1016.3 hPa | 0 mm | 0 m/s | 144 W/m² | - |
| 1777985909 | 16.67° C | 86% | 1016.3 hPa | 0 mm | 0 m/s | 135 W/m² | - |
| 1777985607 | 16.11° C | 88% | 1016.4 hPa | 0 mm | 0 m/s | 130 W/m² | - |
| 1777985303 | 16.11° C | 89% | 1016.5 hPa | 0 mm | 0 m/s | 114 W/m² | - |
| 1777985000 | 15.56° C | 89% | 1016.2 hPa | 0 mm | 0 m/s | 121 W/m² | - |
| 1777984696 | 15° C | 90% | 1016 hPa | 0 mm | 0 m/s | 111 W/m² | - |
| 1777984393 | 15° C | 92% | 1016 hPa | 0 mm | 0 m/s | 103 W/m² | - |
| 1777984089 | 14.44° C | 92% | 1016 hPa | 0 mm | 0 m/s | 87 W/m² | - |
| 1777983786 | 13.89° C | 93% | 1015.9 hPa | 0 mm | 0 m/s | 74 W/m² | - |
| 1777983482 | 13.89° C | 94% | 1016 hPa | 0 mm | 0 m/s | 70 W/m² | - |
| 1777983180 | 13.33° C | 95% | 1015.9 hPa | 0 mm | 0 m/s | 64 W/m² | - |
| 1777982876 | 12.78° C | 95% | 1016 hPa | 0 mm | 0 m/s | 54 W/m² | - |
| 1777982572 | 12.78° C | 96% | 1015.9 hPa | 0 mm | 0 m/s | 50 W/m² | - |
| 1777982271 | 12.78° C | 96% | 1015.7 hPa | 0 mm | 0 m/s | 43 W/m² | - |
| 1777981968 | 12.22° C | 96% | 1015.8 hPa | 0 mm | 0 m/s | 32 W/m² | - |
| 1777981666 | 12.22° C | 96% | 1015.7 hPa | 0 mm | 0 m/s | 29 W/m² | - |
| 1777981361 | 12.22° C | 96% | 1015.6 hPa | 0 mm | 0 m/s | 26 W/m² | - |
| 1777981059 | 11.67° C | 96% | 1015.5 hPa | 0 mm | 0 m/s | 20 W/m² | - |
| 1777980755 | 11.67° C | 97% | 1015.5 hPa | 0 mm | 0 m/s | 16 W/m² | - |
* Rain latest hour (hover to see other rain measurements)
** Current wind speed in m/s (hover to see current wind gust speed)